Location: Jaite
(41.2884°N, 81.5737°W)
Time: 12:21:37
(UTC+00:00)

Cosmos 1371 Rocket - Pass Details

Date: 15 November 2025
Orbit: 749 x 785 km, 74.0° (Epoch: 06 December)

Event Time Altitude Azimuth Distance (km) Brightness Sun altitude
Exits shadow 10:41:01 - 222° (SW) 2,365 6.2 -17.6°
Reaches altitude 10° 10:41:10 10° 222° (SW) 2,313 6.2 -17.6°
Maximum altitude 10:46:11 44° 295° (WNW) 1,063 4.3 -16.7°
Drops below altitude 10° 10:51:17 10° 7° (N) 2,346 6.5 -15.8°
Sets 10:53:48 0° 14° (NNE) 3,282 7.3 -15.3°
